STARLINK-2673 (48649 NORAD) Tracking and Keplerian Element Data

This shows tracking and keplerian element data for the satellite.

Feedback or suggestion? Click here.




ElementValue
Catalog48649
NameSTARLINK-2673
Epoch Orbit1049
Epoch Day214.72432067
Epoch Year2021
RAAN103.316
Inclination53.0507
Eccentricity0.0001872
Argument of Perigee83.3079
Mean Anonmoly276.8123
Mean Motion15.0638475
Decay Rate5.14E-06
L11 48649U 21044M 21214.72432067 .00000514 00000-0 53459-4 0 9993
L22 48649 53.0507 103.3160 0001872 83.3079 276.8123 15.06384750 10497

Live tracking and technical data element details for STARLINK-2673 (NORAD 48649). STARLINK-2673 can be tracked NOW for your location showing map with azimuth and elevation plus other details from your city location.

Track the satellite on the map from your city or location and see movement details for azimuth, elevation, latitude, longitude, range, height, and movement on the map or in text.







IsCatalogInMostPopularTable: catalog: 48649, numindb: 13
Update: records affected: 1



GetName: 48649 STARLINK-2673

Hit Count: updated at: Tue, 03 Aug 2021 19:55:19 GMT